Location: Tel Aviv
(32.0670°N, 34.7670°E)
Time: 12:42:11
(UTC+03:00)

ISS - Visible Passes

Search period start: 29 May 2024 00:00
Search period end: 08 June 2024 00:00
Orbit: 411 x 419 km, 51.6° (Epoch: 29 May)

Date Brightness Start Highest point End Pass type
(mag) Time Alt. Az. Time Alt. Az. Time Alt. Az.
29 May -2.0 20:20:25 10° NNW 20:23:08 22° NE 20:25:49 10° E visible
29 May -1.7 21:56:56 10° WNW 21:58:48 22° W 21:58:48 22° W visible
30 May -3.4 21:07:35 10° NW 21:10:52 55° SW 21:11:48 38° S visible
31 May -3.7 20:18:28 10° NW 20:21:49 68° NE 20:24:50 12° SE visible
01 Jun -1.4 21:06:57 10° W 21:09:04 16° SW 21:10:44 12° SSW visible
02 Jun -2.3 20:17:00 10° WNW 20:20:00 31° SW 20:22:59 10° SSE visible
